Location: Terra Rouge Observatory
(46.0000°N, 62.7500°W)
Time: 21:18:15
(UTC-03:00)

NOSS 3-1 (A) - Visible Passes

Search period start: 01 October 2014 00:00
Search period end: 11 October 2014 00:00
Orbit: 896 x 1317 km, 63.4° (Epoch: 26 August)

Date Brightness Start Highest point End Pass type
(mag) Time Alt. Az. Time Alt. Az. Time Alt. Az.
01 Oct 5.6 03:17:50 16° ESE 03:18:19 17° ESE 03:22:07 10° ENE visible
01 Oct 3.5 05:05:18 36° SW 05:08:07 87° SE 05:14:53 10° NE visible
02 Oct 3.8 04:22:29 51° SSE 04:23:33 58° ESE 04:30:04 10° NE visible
02 Oct 4.3 06:09:57 15° W 06:14:48 38° NW 06:21:12 10° NNE visible
03 Oct 4.6 03:39:35 36° ESE 03:39:35 36° ESE 03:45:04 10° NE visible
03 Oct 3.8 05:27:03 32° WSW 05:29:49 52° NW 05:36:31 10° NE visible
04 Oct 5.5 02:56:38 20° E 02:56:38 20° E 02:59:45 10° ENE visible
04 Oct 3.4 04:44:06 64° WSW 04:45:00 75° NW 04:51:49 10° NE visible
04 Oct 4.9 06:31:52 10° W 06:37:09 26° NNW 06:42:53 10° NNE visible
05 Oct 3.7 04:01:06 67° ENE 04:01:06 67° ENE 04:07:03 10° NE visible
05 Oct 4.5 05:48:34 21° WNW 05:51:57 32° NNW 05:58:06 10° NNE visible
06 Oct 4.8 03:18:04 35° ENE 03:18:04 35° ENE 03:22:10 10° NE visible
06 Oct 4.0 05:05:32 38° WNW 05:06:52 43° NW 05:13:24 10° NNE visible
07 Oct 5.7 02:35:00 19° ENE 02:35:00 19° ENE 02:37:05 10° NE visible
07 Oct 3.8 04:22:27 58° NNW 04:22:27 58° NNW 04:28:43 10° NE visible
07 Oct 5.1 06:09:54 12° WNW 06:14:25 23° NNW 06:19:53 10° NNE visible
08 Oct 4.4 03:39:21 46° NE 03:39:21 46° NE 03:44:00 10° NE visible
08 Oct 4.7 05:26:48 23° WNW 05:29:08 28° NNW 05:35:02 10° NNE visible
09 Oct 5.3 02:56:13 27° NE 02:56:13 27° NE 02:59:12 10° NE visible
09 Oct 4.4 04:43:40 35° NW 04:43:59 36° NNW 04:50:17 10° NNE visible
09 Oct 5.4 06:32:28 10° NW 06:37:09 19° N 06:42:08 10° NE visible
10 Oct 6.0 02:13:03 15° NE 02:13:03 15° NE 02:14:15 10° NE visible
10 Oct 4.4 04:00:30 41° N 04:00:30 41° N 04:05:36 10° NNE visible
10 Oct 5.3 05:47:57 14° NW 05:51:43 21° NNW 05:56:57 10° NNE visible
